TimePDT,TemperatureF,Dew PointF,Humidity,Sea Level PressureIn,VisibilityMPH,Wind Direction,Wind SpeedMPH,Gust SpeedMPH,PrecipitationIn,Events,Conditions,WindDirDegrees,DateUTC
12:12 AM,37.4,35.6,93,30.11,10.0,Calm,Calm,-,0.00,Rain,Light Rain,0,2012-10-25 07:12:00
12:53 AM,37.9,36.0,93,30.16,10.0,Calm,Calm,-,0.00,,Overcast,0,2012-10-25 07:53:00
1:42 AM,37.4,35.6,93,30.13,8.0,South,4.6,-,0.00,Rain,Light Rain,180,2012-10-25 08:42:00
1:53 AM,37.0,35.1,93,30.17,10.0,South,3.5,-,0.01,Rain,Light Rain,170,2012-10-25 08:53:00
2:32 AM,37.4,33.8,87,30.14,10.0,Calm,Calm,-,0.00,,Overcast,0,2012-10-25 09:32:00
2:53 AM,36.0,35.1,97,30.19,10.0,South,3.5,-,0.00,,Mostly Cloudy,170,2012-10-25 09:53:00
3:53 AM,37.0,36.0,96,30.20,10.0,SSW,3.5,-,N/A,,Overcast,200,2012-10-25 10:53:00
4:53 AM,37.0,35.1,93,30.21,10.0,South,3.5,-,N/A,,Overcast,180,2012-10-25 11:53:00
5:53 AM,36.0,34.0,93,30.24,10.0,SSW,4.6,-,N/A,,Mostly Cloudy,210,2012-10-25 12:53:00
6:44 AM,35.6,33.8,93,30.20,9.0,SW,8.1,-,N/A,,Overcast,220,2012-10-25 13:44:00
6:53 AM,35.1,34.0,96,30.26,7.0,SW,8.1,-,N/A,,Overcast,230,2012-10-25 13:53:00
6:59 AM,35.6,33.8,93,30.21,7.0,SW,9.2,-,N/A,,Overcast,230,2012-10-25 13:59:00
7:13 AM,35.6,33.8,93,30.22,2.0,WSW,10.4,-,N/A,,Overcast,240,2012-10-25 14:13:00
7:48 AM,35.6,33.8,93,30.23,3.0,West,8.1,-,N/A,,Overcast,260,2012-10-25 14:48:00
7:53 AM,35.1,33.1,92,30.28,3.0,WSW,8.1,-,N/A,,Overcast,250,2012-10-25 14:53:00
8:09 AM,35.6,33.8,93,30.24,3.0,West,4.6,-,N/A,,Overcast,260,2012-10-25 15:09:00
8:27 AM,35.6,33.8,93,30.25,3.0,WSW,5.8,-,N/A,,Overcast,250,2012-10-25 15:27:00
8:53 AM,36.0,34.0,93,30.31,3.0,West,4.6,-,N/A,,Overcast,270,2012-10-25 15:53:00
9:53 AM,36.0,35.1,97,30.33,7.0,WSW,4.6,-,N/A,,Overcast,250,2012-10-25 16:53:00
10:53 AM,37.9,36.0,93,30.35,9.0,West,6.9,-,N/A,,Overcast,260,2012-10-25 17:53:00
11:35 AM,39.2,33.8,81,30.31,10.0,NW,4.6,-,N/A,,Mostly Cloudy,310,2012-10-25 18:35:00
11:53 AM,39.9,34.0,79,30.37,10.0,Calm,Calm,-,N/A,,Mostly Cloudy,0,2012-10-25 18:53:00
12:53 PM,39.9,33.1,77,30.38,10.0,Calm,Calm,-,N/A,,Mostly Cloudy,0,2012-10-25 19:53:00
1:42 PM,39.2,35.6,87,30.34,10.0,SW,9.2,-,0.00,Rain,Small Hail,220,2012-10-25 20:42:00
1:53 PM,39.9,35.1,83,30.39,10.0,WSW,6.9,-,0.00,Rain,Small Hail,240,2012-10-25 20:53:00
1:57 PM,39.2,35.6,87,30.34,10.0,SW,8.1,-,0.00,Rain,Light Rain,220,2012-10-25 20:57:00
2:29 PM,39.2,35.6,87,30.35,10.0,SSW,6.9,-,0.00,,Overcast,200,2012-10-25 21:29:00
2:53 PM,41.0,35.1,79,30.40,10.0,SW,9.2,-,0.00,,Mostly Cloudy,220,2012-10-25 21:53:00
3:31 PM,41.0,35.6,81,30.35,10.0,SW,4.6,-,N/A,,Overcast,230,2012-10-25 22:31:00
3:53 PM,41.0,33.1,73,30.41,10.0,WSW,8.1,-,N/A,,Overcast,240,2012-10-25 22:53:00
4:06 PM,41.0,33.8,76,30.37,10.0,WSW,6.9,-,N/A,,Overcast,240,2012-10-25 23:06:00
4:53 PM,41.0,34.0,76,30.42,10.0,WSW,8.1,-,N/A,,Mostly Cloudy,240,2012-10-25 23:53:00
5:53 PM,39.9,34.0,79,30.44,10.0,SW,10.4,-,N/A,,Overcast,220,2012-10-26 00:53:00
6:02 PM,39.2,33.8,81,30.39,10.0,SW,8.1,-,N/A,,Overcast,220,2012-10-26 01:02:00
6:53 PM,39.0,35.1,86,30.45,10.0,SW,8.1,-,N/A,,Overcast,220,2012-10-26 01:53:00
7:01 PM,37.4,35.6,93,30.40,10.0,SW,6.9,-,N/A,,Overcast,220,2012-10-26 02:01:00
7:53 PM,37.0,34.0,89,30.45,10.0,South,8.1,-,N/A,,Overcast,190,2012-10-26 02:53:00
8:53 PM,35.6,33.8,93,30.38,10.0,SE,5.8,-,N/A,,Overcast,140,2012-10-26 03:53:00
9:53 PM,34.0,32.0,92,30.45,10.0,SSW,3.5,-,N/A,,Overcast,200,2012-10-26 04:53:00
10:53 PM,35.1,30.9,85,30.45,10.0,South,6.9,-,N/A,,Overcast,170,2012-10-26 05:53:00
11:53 PM,34.0,30.9,89,30.45,10.0,SSE,5.8,-,N/A,,Overcast,150,2012-10-26 06:53:00